Temp
12 12 12 13 13 13 13 13 13 13 13 13 13 14 14 14 14 15 15 16 16 16 17 17 17 17 17 15 15 16 16 16 16 17 17 15 16 18 17 20 19 17 18 16 15 15 16
11 11 11 11 11 12 12 12 13 13 13 13 13 14 14 14 14 15 15 15 16 16 16 16 16 16 16 14 16 16 16 16 16 16 15 16 16 17 18 18 18 17 17 16 14 14 16
10 10 11 11 11 11 12 12 12 12 12 13 13 13 14 14 14 15 15 15 16 16 16 16 16 14 14 16 17 16 16 16 16 15 15 15 15 16 17 18 16 16 15 14 14 14 14
10 10 9 10 11 11 11 11 11 11 11 12 12 12 13 13 14 14 15 15 16 16 16 15 15 14 14 15 15 16 16 15 15 15 15 15 15 15 16 15 16 15 15 15 16 14 14
9 9 9 9 9 9 10 10 10 10 11 11 11 11 12 12 13 14 15 15 16 16 16 15 14 13 14 15 15 15 15 14 14 15 14 14 14 15 15 14 14 14 14 14 15 14 12
9 9 8 9 10 9 9 9 10 11 10 10 10 11 11 12 12 13 14 15 16 15 15 14 13 12 14 14 14 14 14 14 13 13 13 14 14 13 13 13 12 15 14 16 16 14 13
10 10 10 10 10 10 10 10 10 10 11 10 9 10 11 11 12 13 14 15 14 14 12 15 16 16 16 14 14 13 13 13 13 13 13 14 12 12 14 15 16 17 16 16 17 17 13
10 10 10 10 10 10 10 10 10 10 10 9 9 10 10 10 11 12 13 11 9 9 7 15 15 14 13 12 13 12 13 13 13 12 14 14 11 14 16 16 16 15 15 15 16 14 13
10 10 9 9 9 9 10 10 10 10 10 9 8 8 9 10 10 10 10 10 9 9 8 14 13 12 12 12 13 14 13 13 14 13 13 13 15 16 16 15 15 14 15 15 15 15 13
9 9 9 9 8 8 8 9 9 9 9 9 9 9 8 9 10 9 9 10 10 9 9 14 12 11 11 11 12 12 12 13 14 13 13 14 16 15 14 14 15 13 15 15 15 14 10
9 9 8 8 8 8 8 8 8 8 8 8 8 8 8 8 8 9 9 10 10 9 10 14 11 11 10 11 11 11 10 11 12 13 14 12 14 13 13 14 14 14 14 14 13 12 12
9 8 8 8 7 7 7 6 6 6 7 7 7 7 7 8 8 9 9 10 10 10 10 14 11 12 11 12 12 11 10 10 11 12 12 13 14 12 13 14 13 12 14 14 13 11 8
5 5 5 5 5 6 5 6 6 6 6 6 7 7 7 7 7 8 9 10 10 9 16 14 13 12 13 13 12 11 11 10 10 9 10 13 12 13 13 12 11 12 12 8 8 7 8
3 3 4 4 4 4 4 4 5 5 5 5 6 7 7 7 8 8 8 9 8 12 14 14 13 13 12 14 13 13 11 11 11 11 11 10 10 12 10 11 11 9 11 8 11 10 11
3 3 3 3 3 3 4 4 4 4 4 4 5 5 6 7 7 7 8 7 9 13 13 11 12 12 13 14 13 13 12 11 13 13 11 12 13 13 12 12 12 10 9 13 11 11 9
2 2 2 3 3 3 3 3 3 3 3 3 4 4 5 6 6 6 7 8 10 11 11 11 9 11 11 12 11 11 12 14 14 10 11 13 10 12 9 10 10 11 11 9 8 9 10
1 1 2 2 2 3 3 3 3 3 3 3 4 4 4 5 4 5 5 7 9 10 10 10 9 9 10 9 10 10 10 11 12 10 11 10 10 10 8 8 9 9 8 10 10 9 10
0 1 1 1 2 2 2 2 3 3 3 3 3 4 4 3 4 4 5 7 6 8 8 7 6 7 7 8 8 8 9 10 10 9 9 9 8 7 10 11 10 11 11 12 11 11 10
-0 0 1 1 1 2 2 2 2 2 2 2 3 4 4 3 4 5 6 6 7 7 8 8 8 7 7 5 4 6 7 9 9 7 5 5 6 5 7 9 8 8 9 10 12 11 10
-0 0 0 1 1 1 2 2 2 2 2 2 2 4 2 2 2 3 5 5 6 5 5 6 6 6 5 5 6 5 6 7 7 7 5 3 3 5 6 7 9 8 8 8 9 9 10
0 0 -0 0 0 1 1 2 2 2 1 1 2 3 5 3 2 3 4 3 3 4 5 5 4 5 6 4 5 5 6 6 6 6 6 3 3 4 5 6 6 6 7 8 5 7 8
0 -0 -0 -0 0 0 1 1 1 2 1 1 2 3 4 4 4 5 3 2 3 5 5 4 3 5 6 4 4 4 4 3 4 4 5 1 3 5 4 5 5 5 5 6 7 6 8
0 -0 -0 -0 -0 0 0 1 1 1 1 0 1 2 2 3 4 3 3 3 3 5 5 5 5 3 3 3 2 2 2 2 2 2 2 2 1 3 4 5 5 5 5 5 6 7 7
-0 -0 -0 -0 -0 -0 0 0 1 1 0 1 1 1 1 2 3 3 5 5 5 5 4 4 4 2 1 1 1 1 -0 -0 0 0 0 1 2 2 3 4 4 4 0 0 1 0 -3
-0 -0 -0 -0 -0 -0 -0 -0 0 1 1 1 1 0 0 1 2 3 3 3 4 2 2 2 2 1 0 0 0 1 0 1 -0 -0 -0 -0 1 2 3 3 5 5 -2 -4 -3 -2 -6
-0 -0 -1 -1 -1 -0 -0 0 0 1 1 0 0 0 0 0 1 2 2 2 2 2 2 1 0 -0 -1 -0 1 0 2 3 1 0 -2 -3 -1 0 2 3 4 -2 -4 -4 -4 0 -6
-1 -1 -1 -1 -1 -0 -0 -0 0 1 1 0 0 0 -0 0 1 1 1 1 1 1 1 1 -1 -2 -2 -0 1 2 2 2 1 1 1 -1 -0 -0 0 2 -0 -5 -5 -5 0 -3 -6
-1 -1 -1 -1 -1 -1 -0 -0 1 1 1 0 0 0 -0 -0 -0 -0 0 0 -0 -0 0 -0 -1 -2 -2 -1 1 1 -1 -0 0 1 0 1 1 2 1 1 1 -6 -4 -4 -6 -7 -7
-1 -1 -1 -1 -1 -1 -0 -0 0 1 1 0 -0 0 -1 -1 -1 -1 -1 -0 -1 -0 0 -1 -0 -0 -0 -1 -2 -1 -0 -1 -0 1 -2 -0 -4 -3 -3 -4 -6 -7 -7 -8 -8 -7 -8
Height
1564 1563 1561 1560 1558 1556 1554 1553 1551 1548 1546 1544 1542 1540 1537 1535 1532 1530 1528 1525 1522 1519 1517 1515 1514 1513 1512 1512 1510 1507 1507 1507 1506 1506 1507 1509 1510 1510 1507 1502 1502 1504 1501 1501 1502 1502 1500
1566 1564 1562 1560 1558 1556 1554 1552 1550 1548 1546 1544 1542 1539 1536 1533 1530 1528 1525 1522 1519 1517 1515 1513 1511 1510 1509 1510 1504 1504 1505 1505 1505 1505 1506 1506 1507 1507 1506 1503 1503 1502 1501 1501 1502 1502 1501
1567 1566 1564 1562 1559 1557 1555 1552 1550 1548 1546 1543 1540 1537 1534 1531 1528 1526 1522 1519 1516 1514 1512 1510 1509 1507 1505 1502 1499 1501 1501 1502 1502 1504 1505 1506 1505 1506 1505 1503 1503 1503 1504 1502 1500 1499 1500
1567 1565 1563 1561 1559 1557 1555 1553 1550 1548 1545 1543 1540 1537 1533 1530 1527 1524 1520 1517 1514 1511 1509 1507 1506 1505 1501 1498 1497 1497 1497 1498 1499 1501 1502 1503 1504 1504 1504 1504 1503 1504 1502 1503 1487 1496 1498
1567 1565 1563 1561 1559 1557 1554 1551 1549 1547 1544 1542 1539 1535 1532 1528 1525 1521 1518 1514 1510 1507 1505 1505 1505 1504 1498 1494 1494 1494 1495 1495 1497 1497 1499 1501 1503 1504 1503 1503 1505 1501 1505 1498 1495 1491 1496
1567 1565 1563 1560 1558 1556 1554 1551 1549 1546 1544 1541 1538 1535 1532 1529 1525 1520 1516 1511 1507 1505 1503 1502 1503 1506 1498 1496 1493 1492 1492 1495 1495 1498 1497 1499 1501 1503 1502 1504 1512 1498 1499 1489 1487 1488 1489
1565 1563 1561 1560 1557 1555 1552 1550 1548 1545 1542 1539 1537 1534 1531 1527 1523 1519 1514 1510 1510 1507 1504 1500 1497 1493 1494 1491 1493 1493 1492 1493 1495 1496 1497 1494 1500 1499 1495 1492 1486 1484 1484 1484 1477 1469 1480
1564 1562 1560 1558 1556 1554 1552 1549 1546 1543 1540 1537 1535 1532 1530 1527 1524 1520 1517 1515 1516 1517 1503 1492 1488 1487 1488 1486 1490 1490 1493 1494 1492 1493 1492 1496 1496 1483 1483 1482 1484 1484 1484 1482 1476 1476 1478
1561 1559 1557 1555 1553 1552 1549 1547 1545 1541 1538 1536 1533 1530 1528 1526 1524 1523 1518 1518 1517 1515 1511 1487 1482 1486 1487 1486 1484 1485 1489 1489 1488 1490 1488 1488 1478 1475 1479 1481 1482 1483 1482 1479 1481 1475 1475
1558 1556 1554 1552 1550 1548 1546 1544 1541 1539 1536 1534 1531 1529 1527 1525 1525 1523 1521 1519 1516 1514 1509 1483 1482 1484 1486 1487 1486 1483 1483 1487 1485 1484 1484 1482 1472 1472 1475 1477 1479 1483 1472 1473 1473 1480 1491
1554 1552 1550 1548 1546 1544 1542 1540 1538 1536 1533 1530 1528 1527 1526 1523 1524 1523 1522 1518 1516 1516 1519 1481 1484 1483 1484 1487 1487 1485 1486 1486 1481 1478 1481 1477 1470 1474 1475 1466 1471 1473 1472 1473 1473 1475 1477
1551 1548 1546 1545 1543 1541 1538 1537 1534 1531 1529 1527 1525 1524 1524 1524 1522 1521 1520 1518 1516 1518 1514 1479 1481 1482 1482 1481 1480 1481 1483 1486 1485 1481 1475 1467 1467 1469 1467 1466 1468 1470 1469 1473 1473 1479 1491
1548 1545 1543 1540 1539 1536 1535 1533 1530 1528 1526 1524 1523 1521 1520 1520 1522 1520 1519 1519 1520 1517 1478 1480 1480 1482 1480 1477 1476 1478 1480 1482 1481 1489 1478 1462 1461 1459 1463 1469 1468 1469 1475 1494 1495 1497 1477
1545 1543 1541 1538 1537 1535 1533 1530 1527 1524 1522 1520 1518 1517 1516 1516 1516 1517 1519 1519 1519 1491 1482 1478 1482 1482 1484 1475 1471 1470 1476 1478 1473 1474 1471 1473 1471 1454 1456 1459 1462 1468 1468 1486 1474 1474 1457
1541 1540 1538 1536 1534 1533 1531 1529 1525 1522 1519 1516 1514 1512 1511 1511 1513 1514 1517 1517 1501 1487 1486 1489 1484 1480 1477 1471 1477 1472 1473 1475 1467 1465 1473 1463 1452 1445 1445 1449 1457 1459 1468 1449 1461 1452 1461
1536 1535 1533 1532 1531 1530 1528 1526 1524 1519 1517 1514 1512 1510 1509 1507 1510 1512 1513 1503 1495 1493 1491 1490 1493 1482 1482 1477 1478 1477 1471 1463 1464 1466 1464 1459 1460 1447 1452 1451 1451 1454 1454 1465 1469 1470 1451
1532 1530 1528 1527 1526 1526 1525 1523 1521 1517 1514 1513 1511 1509 1507 1506 1508 1509 1506 1499 1494 1494 1494 1491 1488 1483 1483 1485 1480 1481 1475 1470 1467 1467 1466 1466 1462 1453 1455 1457 1453 1457 1459 1450 1447 1447 1442
1528 1526 1524 1523 1522 1521 1520 1519 1518 1516 1512 1511 1511 1510 1507 1508 1511 1507 1502 1500 1498 1496 1496 1496 1495 1495 1492 1485 1481 1482 1476 1475 1471 1472 1471 1469 1467 1459 1444 1439 1441 1439 1438 1440 1444 1436 1429
1524 1522 1521 1519 1519 1518 1516 1516 1515 1514 1512 1511 1509 1508 1508 1508 1507 1502 1499 1497 1495 1493 1493 1491 1490 1491 1490 1494 1493 1482 1478 1474 1476 1478 1478 1480 1473 1468 1443 1434 1441 1442 1435 1433 1429 1431 1422
1518 1518 1517 1514 1514 1513 1513 1513 1513 1512 1511 1511 1511 1506 1505 1505 1504 1503 1499 1495 1492 1491 1493 1491 1487 1488 1489 1490 1489 1484 1479 1478 1476 1478 1479 1482 1477 1468 1457 1447 1442 1445 1440 1440 1436 1430 1399
1514 1512 1511 1510 1509 1508 1507 1508 1509 1509 1508 1509 1508 1505 1500 1499 1501 1500 1499 1496 1496 1496 1492 1490 1489 1484 1484 1487 1482 1480 1478 1476 1476 1476 1474 1477 1469 1465 1451 1442 1445 1440 1438 1437 1441 1430 1425
1508 1507 1506 1504 1503 1502 1501 1502 1503 1504 1505 1506 1505 1501 1498 1495 1495 1492 1493 1492 1492 1489 1490 1489 1489 1484 1479 1483 1482 1479 1479 1481 1477 1471 1470 1470 1457 1453 1445 1437 1440 1435 1431 1421 1419 1419 1410
1502 1501 1499 1498 1498 1497 1496 1496 1497 1498 1498 1498 1498 1496 1496 1492 1490 1491 1491 1488 1489 1485 1484 1482 1480 1483 1480 1479 1480 1476 1475 1473 1472 1471 1469 1466 1461 1453 1438 1432 1429 1423 1408 1408 1405 1401 1402
1496 1495 1494 1493 1492 1491 1491 1491 1491 1493 1493 1493 1494 1493 1491 1484 1487 1486 1480 1480 1482 1482 1481 1480 1480 1482 1480 1476 1475 1470 1465 1460 1460 1454 1462 1457 1454 1449 1434 1434 1426 1411 1415 1412 1409 1413 1420
1488 1488 1487 1487 1486 1485 1484 1483 1483 1485 1486 1486 1489 1491 1488 1478 1479 1482 1479 1477 1477 1477 1479 1478 1477 1478 1477 1476 1474 1466 1459 1455 1447 1450 1452 1454 1454 1442 1431 1426 1405 1402 1426 1432 1428 1424 1430
1480 1480 1479 1479 1480 1480 1477 1475 1475 1476 1480 1481 1481 1484 1483 1476 1471 1476 1476 1473 1474 1471 1471 1474 1474 1475 1475 1474 1472 1469 1457 1449 1450 1449 1451 1453 1451 1450 1436 1420 1409 1438 1434 1432 1429 1413 1430
1472 1472 1471 1470 1470 1473 1472 1469 1468 1467 1470 1472 1473 1477 1479 1473 1466 1469 1473 1470 1470 1469 1468 1470 1471 1472 1473 1471 1466 1459 1453 1446 1453 1448 1444 1449 1444 1443 1436 1428 1428 1442 1434 1429 1418 1432 1432
1463 1463 1463 1463 1463 1463 1464 1462 1461 1461 1463 1466 1464 1468 1471 1468 1463 1464 1466 1468 1465 1464 1465 1466 1469 1469 1471 1468 1461 1454 1455 1449 1449 1443 1445 1444 1441 1430 1430 1428 1421 1447 1435 1437 1447 1440 1436
1454 1454 1455 1455 1456 1456 1456 1455 1454 1454 1456 1459 1459 1461 1463 1464 1462 1460 1460 1461 1458 1458 1461 1461 1463 1463 1463 1464 1460 1457 1454 1451 1448 1443 1447 1446 1460 1455 1454 1456 1458 1456 1453 1450 1446 1443 1439
Wind_Speed
12 13 13 13 14 14 14 14 14 14 13 13 14 14 14 15 15 15 15 15 14 13 14 13 15 16 13 6 8 12 12 9 7 6 5 3 7 11 7 6 3 7 4 0 3 3 5
11 11 12 12 12 13 14 14 14 15 15 16 16 16 17 16 16 15 15 15 15 16 15 14 11 13 9 5 9 10 10 9 7 6 4 4 6 10 8 7 2 6 3 2 4 6 5
10 11 12 12 12 12 13 14 15 15 16 16 15 16 16 17 18 18 17 17 16 15 15 15 13 11 12 14 13 14 12 9 8 7 7 7 10 6 6 4 5 3 3 5 10 10 5
10 12 13 13 13 15 14 14 14 15 16 17 18 18 19 19 19 18 18 19 19 18 17 16 13 10 9 11 13 14 11 8 7 6 8 10 6 6 3 1 2 3 4 4 7 12 6
15 15 16 17 17 17 17 16 15 16 18 18 19 19 20 21 22 22 20 19 18 17 15 12 10 5 7 7 7 7 7 6 6 4 5 4 5 5 3 4 5 7 5 9 5 17 7
14 17 18 20 19 19 19 20 19 20 20 19 20 21 22 23 23 23 19 18 13 12 8 5 6 5 7 3 7 5 6 6 4 4 3 5 5 4 4 5 6 8 7 7 9 12 10
17 18 19 20 21 22 23 23 24 23 23 21 21 21 21 22 22 21 20 15 9 5 6 9 10 14 10 11 11 6 6 6 4 6 5 11 4 9 14 13 16 13 16 15 8 8 9
18 20 21 21 21 22 23 23 25 25 25 23 24 24 22 22 21 16 16 8 7 8 14 23 26 23 17 11 4 8 9 8 8 7 11 3 10 14 11 10 6 10 14 17 10 8 7
22 23 23 23 23 23 23 23 23 23 23 22 22 23 21 21 16 19 14 17 13 11 7 14 7 4 6 10 6 9 12 6 6 8 9 11 11 4 3 9 12 11 13 11 11 3 6
25 25 26 27 25 24 23 23 22 22 21 21 21 21 21 20 7 18 8 19 17 14 4 5 3 1 1 3 4 8 13 6 6 6 9 11 18 15 15 9 7 13 8 10 14 8 7
28 27 27 26 27 26 25 25 23 22 20 19 18 19 17 13 12 12 13 17 15 6 6 3 3 3 2 4 2 2 8 5 7 7 4 8 5 4 7 13 8 9 2 4 7 8 6
28 28 27 26 25 24 23 23 23 22 20 19 18 17 15 14 13 9 13 14 9 2 8 3 4 3 3 8 4 3 3 5 5 6 10 17 3 4 7 1 1 4 2 3 3 2 6
21 20 19 20 20 20 21 22 22 23 22 22 19 18 16 16 10 10 9 9 3 5 4 3 2 3 4 4 5 7 5 6 5 1 6 7 19 4 6 3 2 5 4 2 3 2 8
19 18 18 17 18 18 18 18 18 19 20 22 21 18 17 14 12 9 5 2 7 7 8 2 1 3 4 5 6 8 4 8 10 9 5 3 6 13 10 14 8 9 9 5 8 5 4
19 20 19 19 17 17 18 20 21 20 20 21 21 18 14 14 7 5 5 6 4 2 3 9 13 9 11 3 2 3 6 6 5 9 7 5 6 3 7 4 7 5 8 16 10 9 5
20 21 21 21 19 17 18 20 21 21 20 20 20 13 13 14 11 7 4 12 7 7 7 8 6 7 10 15 7 7 4 2 3 8 10 4 14 3 4 4 6 4 3 2 3 4 7
19 19 19 21 20 20 20 19 18 19 19 17 13 6 6 8 9 6 8 5 8 17 9 7 9 13 12 7 9 11 7 11 8 6 7 6 6 4 5 5 9 4 4 5 2 5 4
21 18 19 18 17 18 17 16 16 17 17 12 6 3 5 2 1 2 6 10 3 5 8 4 3 7 11 10 10 14 17 13 16 8 7 9 5 10 17 3 2 7 9 16 9 9 6
21 19 18 19 17 16 14 13 13 14 14 12 5 9 10 7 3 6 8 11 16 8 7 4 4 3 5 3 4 4 3 5 15 7 3 6 3 6 8 10 4 5 7 9 12 10 22
20 17 19 18 19 19 16 14 13 13 12 9 4 2 3 9 10 5 8 11 13 5 6 9 6 4 3 4 7 5 6 5 9 9 2 3 4 9 13 15 16 7 7 10 12 12 27
21 20 19 21 20 20 19 16 15 13 11 7 4 5 8 2 5 11 9 1 5 5 6 4 3 9 10 6 6 11 11 10 17 21 9 7 9 12 21 25 20 24 25 26 22 21 15
23 23 22 21 23 22 20 18 15 14 12 12 6 5 6 11 15 12 7 3 12 14 11 5 7 10 8 9 9 17 14 9 12 8 9 6 9 14 20 23 19 21 24 29 25 30 25
23 23 22 22 21 21 20 20 17 15 16 12 13 19 14 7 6 6 3 4 5 10 10 16 14 6 8 10 13 15 16 20 19 15 16 5 4 4 19 16 13 12 22 23 22 23 23
25 25 23 23 23 22 22 21 20 18 20 23 22 16 8 6 7 7 10 14 14 17 15 17 11 2 4 12 21 22 25 28 25 23 20 15 17 6 10 11 14 3 6 4 3 6 14
28 26 25 25 24 23 22 23 22 21 20 24 24 19 8 5 9 10 15 11 19 14 7 9 15 14 13 8 3 6 4 3 7 5 6 13 11 6 7 10 13 11 8 6 6 4 11
32 30 27 26 25 25 25 24 23 22 21 22 26 23 17 5 8 17 19 18 11 6 6 5 7 9 3 2 2 4 3 3 5 2 1 2 2 3 5 6 3 2 5 12 7 3 14
32 31 30 28 26 26 24 24 23 23 23 23 25 23 20 10 17 16 10 6 5 3 2 3 3 1 3 2 4 5 6 2 3 3 2 3 2 5 9 7 1 4 17 16 2 5 19
30 31 31 29 27 26 24 23 23 24 24 22 26 24 23 10 18 20 18 13 9 6 3 4 0 1 3 3 2 3 2 2 1 2 3 2 3 2 2 4 2 20 6 5 7 12 13
29 29 30 29 25 26 23 22 17 16 21 21 25 23 19 16 13 11 13 21 17 13 8 8 2 4 3 3 2 2 3 3 3 4 2 1 3 3 3 3 9 9 5 11 12 11 8
Wind_Direction
44 41 38 32 26 19 14 9 4 2 359 357 354 351 349 347 345 341 338 334 330 328 326 327 328 324 330 330 264 285 298 293 287 269 250 247 277 260 264 272 124 234 225 357 321 244 269
43 38 32 29 25 21 17 12 7 2 357 354 351 348 343 340 338 335 333 329 325 321 318 314 317 317 317 252 264 280 292 290 281 273 247 227 251 293 309 303 260 353 357 206 222 221 219
15 11 8 7 7 5 3 2 2 0 356 352 348 344 339 336 334 331 327 320 316 311 308 306 306 307 287 273 265 284 281 281 279 266 253 270 239 240 322 226 233 281 255 216 220 195 210
347 344 344 344 345 345 346 347 347 347 348 348 347 345 341 336 331 327 324 320 317 308 301 295 291 292 261 264 270 273 267 270 267 258 250 252 245 260 226 142 207 226 225 252 193 167 200
336 335 334 334 334 338 337 334 335 339 338 337 337 339 340 340 338 332 329 322 315 306 297 287 291 270 263 261 259 260 239 214 239 234 248 258 201 249 187 210 250 204 242 217 180 185 143
321 324 327 331 335 332 332 330 326 327 330 330 333 334 338 338 338 337 337 332 322 314 308 297 250 272 248 289 251 240 234 218 171 210 166 182 205 227 217 200 223 227 219 243 242 195 182
319 319 325 325 325 325 325 326 325 320 322 322 326 327 332 335 338 341 346 355 345 328 308 246 274 254 289 262 274 258 228 188 182 196 214 184 180 213 224 223 240 270 289 290 290 189 168
315 316 317 317 317 318 318 320 322 324 324 322 321 323 331 339 341 348 356 37 11 311 305 298 273 258 253 232 250 220 212 197 190 212 212 193 231 233 257 273 270 271 251 266 287 165 188
309 309 309 309 311 313 314 316 318 320 322 325 325 331 334 334 341 355 2 1 341 328 262 289 226 240 221 237 221 230 196 214 245 237 233 234 236 230 223 271 253 260 259 263 257 199 238
307 308 308 309 312 312 311 312 313 314 316 316 316 322 334 344 340 349 339 343 340 337 286 232 173 142 247 216 248 205 192 223 230 251 232 251 258 243 253 228 230 259 243 270 259 264 253
308 309 308 309 310 313 315 315 315 314 313 311 310 314 320 332 339 339 339 344 336 345 318 30 108 141 191 241 337 221 229 226 249 206 204 245 217 226 241 246 205 254 82 268 290 266 289
303 304 303 305 307 310 311 313 316 315 311 307 304 304 312 310 319 331 334 337 320 251 249 149 127 163 212 193 204 160 188 216 308 275 255 249 186 215 230 259 260 95 110 261 283 274 255
312 317 320 318 310 304 308 308 309 312 312 310 308 304 299 294 286 305 332 326 277 224 291 141 114 196 257 206 209 183 183 186 206 227 232 245 231 170 185 231 168 184 145 287 283 223 241
306 310 314 320 322 319 319 319 316 311 308 307 304 299 291 288 290 285 299 260 238 276 261 69 169 254 237 334 218 198 275 245 220 244 298 248 301 184 164 210 179 185 186 171 233 215 272
292 299 303 309 315 319 321 321 318 317 318 315 310 307 294 283 278 248 195 227 238 267 21 2 325 293 281 237 314 320 221 244 285 206 218 283 248 36 159 187 193 191 203 233 305 299 287
292 289 287 294 300 305 313 320 321 323 320 325 326 310 285 256 260 215 240 236 263 321 325 328 290 279 288 294 301 321 268 327 11 50 359 296 303 295 57 36 313 227 299 169 217 242 238
299 303 296 291 291 296 300 308 314 324 327 331 327 300 268 265 231 201 231 240 283 276 335 282 263 279 294 322 306 294 274 315 323 357 360 337 261 283 100 193 190 169 250 238 229 201 240
293 293 297 296 294 289 292 298 308 321 331 340 324 276 347 201 207 229 251 256 319 302 301 288 321 264 255 263 281 274 270 261 352 348 299 306 290 279 266 292 242 244 229 222 227 246 237
315 287 300 297 289 294 298 294 300 316 329 330 302 287 280 211 253 232 244 247 248 243 246 241 260 245 10 316 300 268 296 323 332 7 43 346 288 296 294 242 150 219 232 244 252 267 258
309 311 288 296 291 285 290 288 292 296 313 304 298 283 254 222 246 290 292 288 283 194 272 273 268 244 269 249 262 286 271 320 328 307 150 110 238 243 265 281 302 293 321 313 260 244 252
299 308 301 290 292 291 281 286 279 279 291 276 239 250 265 251 217 232 246 216 274 285 234 294 289 249 267 265 252 254 278 320 311 300 260 190 247 225 251 260 259 265 270 266 267 273 262
293 296 298 296 295 286 279 270 278 262 262 251 246 251 264 286 297 286 240 203 238 251 255 241 245 266 258 268 258 287 295 288 276 295 269 199 259 266 266 264 261 259 257 257 248 246 251
291 291 293 296 296 285 284 272 261 255 245 241 248 261 262 253 271 283 254 256 269 279 262 265 277 320 284 271 297 291 284 272 260 267 263 257 236 253 267 281 281 259 246 248 253 245 246
286 289 289 289 291 294 278 281 263 251 246 247 249 260 269 264 259 258 271 270 282 283 283 294 285 226 259 290 302 294 270 260 257 259 245 254 260 260 269 289 262 263 22 15 319 357 8
283 283 285 284 286 287 285 272 269 252 248 247 253 251 248 258 255 271 273 281 283 299 271 272 275 271 270 320 289 290 281 292 250 211 212 228 258 267 255 255 288 316 22 6 6 54 12
277 278 280 282 285 284 285 267 268 252 250 250 249 251 246 266 224 257 273 269 269 269 291 227 249 269 264 210 240 248 267 299 288 228 145 207 183 220 275 282 279 332 319 319 282 222 0
275 273 275 276 280 282 277 276 267 250 247 248 247 248 248 256 260 246 257 276 240 193 208 262 194 164 165 217 235 245 243 235 274 286 251 263 227 228 256 254 160 338 312 309 252 327 340
278 275 273 272 273 279 276 278 269 254 249 246 241 242 246 259 269 282 258 248 219 200 221 170 284 193 186 242 253 278 276 292 318 238 268 271 319 290 277 242 285 359 351 36 315 323 330
277 277 273 271 269 279 271 274 274 260 243 232 235 244 249 249 272 268 267 257 241 221 211 201 201 176 219 270 275 307 295 325 294 279 54 156 357 309 24 24 340 8 20 352 344 321 355